Home   Weather   Halifax   Past weeks

Flag for Canada Past Weather in Halifax, Nova Scotia, Canada — Yesterday and Last 2 Weeks

Now
30 °F

Overcast.


Feels Like: 19 °F
Forecast: 26 / 34 °F
Wind: 16 mph from North

Location: Halifax International Airport

Current Time: Jan 22, 2017 at 6:30:23 am

Latest Report: Jan 22, 2017 at 5:00 am


Visibility: 15 mi

Pressure: 29.68 "Hg

Humidity: 93%

Dew Point: 28 °F

Location of HalifaxLocation

Past Weather in Halifax — Graph

°F

Halifax Temperature Yesterday

Maximum temperature yesterday: 34 °F (at 8:00 pm)
Minimum temperature yesterday: 25 °F (at 3:00 am)
Average temperature yesterday: 28 °F

High & Low Weather Summary for the Past Weeks

 TemperatureHumidityPressure
High50 °F (Jan 12, 2:19 pm)100% (Jan 8, 8:00 am)30.81 "Hg (Jan 8, 8:00 am)
Low1 °F (Jan 9, 8:00 am)43% (Jan 13, 8:00 pm)29.46 "Hg (Jan 8, 4:36 am)
Average24 °F85%30.14 "Hg
* Reported Jan 7 5:00 am — Jan 22 5:00 am, Halifax, Weather by CustomWeather, © 2017

Note: Actual official high and low records may vary slightly from our data, if they occured in-between our weather recording intervals... More about our weather records

Advertising

Halifax Weather History for the Previous 24 Hours

Scroll right to see more
 ConditionsComfort  
Time TempWeatherWind HumidityBarometerVisibility
5:00 am
Sun, Jan 22
30 °FOvercast.16 mph93%29.68 "Hg15 mi
4:00 am30 °FOvercast.8 mph100%29.67 "Hg15 mi
3:00 am30 °FMostly cloudy.7 mph100%29.67 "Hg15 mi
2:00 am30 °FLow clouds.6 mph100%29.65 "Hg15 mi
1:00 am30 °FLight snow. Mostly cloudy.8 mph100%29.67 "Hg12 mi
12:43 am30 °FLight mixture of precip. Ice fog.10 mph100%29.67 "Hg2 mi
12:00 am30 °FLight snow. Low clouds.8 mph100%29.67 "Hg2 mi
11:29 pm
Sat, Jan 21
32 °FLight snow. Low clouds.9 mph100%29.66 "Hg2 mi
11:00 pm32 °FDrizzle. Low clouds.9 mph100%29.66 "Hg2 mi
10:00 pm34 °FLight snow. Mostly cloudy.12 mph100%29.67 "Hg3 mi
9:42 pm34 °FFog.10 mph100%29.66 "Hg6 mi
9:00 pm34 °FDrizzle. Fog.9 mph100%29.66 "Hg3 mi
8:00 pm34 °FDrizzle. Fog.14 mph100%29.67 "Hg4 mi
7:00 pm32 °FLow clouds.13 mph100%29.68 "Hg15 mi
6:43 pm32 °FMostly cloudy.14 mph100%29.68 "Hg15 mi
6:00 pm32 °FMostly cloudy.12 mph93%29.69 "Hg15 mi
5:00 pm30 °FPartly sunny.9 mph93%29.70 "Hg15 mi
4:00 pm30 °FPartly sunny.9 mph86%29.72 "Hg15 mi
3:00 pm30 °FOvercast.8 mph86%29.73 "Hg15 mi
2:00 pm28 °FMostly cloudy.7 mph93%29.74 "Hg15 mi
1:00 pm28 °FLow clouds.8 mph86%29.76 "Hg15 mi
12:45 pm28 °FLow clouds.8 mph86%29.77 "Hg15 mi
12:00 pm27 °FMostly cloudy.10 mph100%29.79 "Hg15 mi
11:45 am27 °FSnow flurries. Mostly cloudy.6 mph93%29.79 "Hg15 mi
11:21 am27 °FSnow flurries. Mostly cloudy.8 mph93%29.81 "Hg2 mi
11:00 am27 °FMostly cloudy.5 mph93%29.82 "Hg15 mi
10:00 am25 °FLow clouds.2 mph100%29.85 "Hg15 mi
9:00 am25 °FLow clouds.No wind93%29.87 "Hg15 mi
8:26 am25 °FLow clouds.2 mph93%29.87 "Hg15 mi
8:00 am25 °FLow clouds.6 mph93%29.87 "Hg15 mi
7:00 am25 °FLow clouds.10 mph93%29.88 "Hg15 mi
6:00 am25 °FLow clouds.7 mph93%29.87 "Hg15 mi
Weather by CustomWeather, © 2017

See weather overviewHow to use our weather pages